Weather History for KMEM - September, 2013

Change the Weather History Date:

Wednesday, September 25, 2013

  Actual Average Record
Temperature  
Mean Temperature 78 °F 72 °F  
Max Temperature 85 °F 82 °F 95 °F (1931)
Min Temperature 70 °F 62 °F 43 °F (1965)
Degree Days  
Heating Degree Days 0 1  
Month to date heating degree days 0 5  
Since 1 July heating degree days 0 5  
Cooling Degree Days 13 7  
Month to date cooling degree days 355 282  
Year to date cooling degree days 2081 2117  
Growing Degree Days 28 (Base 50)    
Moisture  
Dew Point 67 °F    
Average Humidity 70    
Maximum Humidity 93    
Minimum Humidity 47    
Precipitation  
Precipitation T in 0.12 in 1.88 in (1872)
Month to date precipitation 2.56 2.49  
Year to date precipitation 48.51 37.87  
Snow  
Snow 0.00 in 0.00 in 0.00 in (2002)
Month to date snowfall 0.0 0.0  
Since 1 July snowfall 0.0 0.0  
Since 1 September snowfall 0.0 0.0  
Snow Depth -    
Sea Level Pressure  
Sea Level Pressure 29.80 in    
Wind  
Wind Speed 6 mph (SSW)    
Max Wind Speed 13 mph    
Max Gust Speed -    
Visibility 7 miles    
Events      
T = Trace of Precipitation, MM = Missing Value Source: NWS Daily Summary

Daily Weather History Graph

Daily Weather History Graph

Search for Another Location

Airport or City:

Trip Planner

Search our weather history database for the weather conditions in past years. The results will help you decide how hot, cold, wet, or windy it might be!

Date:

Astronomy

Sep. 25, 2013 Rise Set
Actual Time 6:50 AM CDT 6:52 PM CDT
Civil Twilight 6:25 AM CDT 7:17 PM CDT
Nautical Twilight 5:55 AM CDT 7:46 PM CDT
Astronomical Twilight 5:25 AM CDT 8:16 PM CDT
Moon 11:10 PM CDT (9/25) 12:44 PM CDT (9/25)
Length of Visible Light 12h 52m
Length of Day
12h 01m
Waning Gibbous, 64% of the Moon is Illuminated
Sep 25
Waning Gibbous
Sep 26
Last Quarter
Oct 4
New
Oct 11
First Quarter
Oct 18
Full

Hourly Weather History & Observations

Time (CDT) Temp. Heat Index Dew Point Humidity Pressure Visibility Wind Dir Wind Speed Gust Speed Precip Events Conditions
12:03 AM 71.6 °F - 68.0 °F 88% 29.80 in 0.5 mi South 5.8 mph - N/A   Overcast
12:05 AM 71.6 °F - 69.8 °F 94% 29.80 in 2.0 mi South 6.9 mph - N/A   Overcast
12:46 AM 71.6 °F - 68.0 °F 88% 29.81 in 1.5 mi SSE 6.9 mph - N/A   Overcast
12:54 AM 71.1 °F - 69.1 °F 93% 29.80 in 1.5 mi SSE 5.8 mph - N/A   Overcast
1:43 AM 71.6 °F - 69.8 °F 94% 29.80 in 2.0 mi South 6.9 mph - N/A   Overcast
1:54 AM 71.1 °F - 69.1 °F 93% 29.79 in 2.5 mi South 5.8 mph - N/A   Overcast
2:02 AM 71.6 °F - 69.8 °F 94% 29.80 in 3.0 mi South 6.9 mph - N/A   Overcast
2:54 AM 71.1 °F - 69.1 °F 93% 29.78 in 5.0 mi SSE 6.9 mph - N/A   Overcast
3:07 AM 71.6 °F - 69.8 °F 94% 29.79 in 6.0 mi South 5.8 mph - N/A   Overcast
3:54 AM 72.0 °F - 69.1 °F 91% 29.78 in 6.0 mi Calm Calm - N/A   Overcast
4:54 AM 72.0 °F - 68.0 °F 87% 29.78 in 7.0 mi SSW 5.8 mph - N/A   Overcast
5:54 AM 71.1 °F - 69.1 °F 93% 29.78 in 4.0 mi SSE 4.6 mph - N/A   Overcast
6:06 AM 71.6 °F - 69.8 °F 94% 29.79 in 2.0 mi South 5.8 mph - 0.00 in   Light Drizzle
6:14 AM 71.6 °F - 69.8 °F 94% 29.79 in 1.0 mi South 5.8 mph - 0.00 in   Light Drizzle
6:22 AM 71.6 °F - 69.8 °F 94% 29.79 in 1.0 mi South 4.6 mph - 0.00 in   Light Drizzle
7:01 AM 71.6 °F - 69.8 °F 94% 29.80 in 1.0 mi Calm Calm - 0.00 in   Light Drizzle
7:33 AM 71.6 °F - 69.8 °F 94% 29.81 in 2.0 mi SSE 4.6 mph - 0.00 in   Overcast
7:38 AM 71.6 °F - 69.8 °F 94% 29.81 in 3.0 mi SSE 5.8 mph - 0.00 in   Overcast
7:54 AM 72.0 °F - 69.1 °F 91% 29.80 in 5.0 mi South 4.6 mph - 0.00 in   Overcast
8:15 AM 71.6 °F - 69.8 °F 94% 29.81 in 10.0 mi South 5.8 mph - N/A   Mostly Cloudy
8:54 AM 72.0 °F - 69.1 °F 91% 29.81 in 10.0 mi SSW 4.6 mph - N/A   Overcast
9:09 AM 73.4 °F - 69.8 °F 88% 29.82 in 10.0 mi South 5.8 mph - N/A   Mostly Cloudy
9:54 AM 73.9 °F - 68.0 °F 82% 29.82 in 10.0 mi SW 3.5 mph - N/A   Mostly Cloudy
10:54 AM 79.0 °F - 66.9 °F 66% 29.81 in 10.0 mi Variable 5.8 mph - N/A   Mostly Cloudy
11:54 AM 80.1 °F 82.7 °F 68.0 °F 67% 29.81 in 10.0 mi WNW 6.9 mph - N/A   Mostly Cloudy
12:16 PM 80.6 °F 83.2 °F 68.0 °F 65% 29.82 in 10.0 mi WNW 8.1 mph - N/A   Mostly Cloudy
12:54 PM 82.9 °F 85.4 °F 66.9 °F 58% 29.80 in 10.0 mi West 11.5 mph - N/A   Scattered Clouds
1:54 PM 83.5 °F 84.7 °F 63.9 °F 51% 29.78 in 10.0 mi WNW 10.4 mph - N/A   Scattered Clouds
2:54 PM 84.7 °F 85.2 °F 62.1 °F 46% 29.77 in 10.0 mi NW 12.7 mph - N/A   Scattered Clouds
3:54 PM 82.8 °F 83.8 °F 62.8 °F 51% 29.77 in 10.0 mi West 6.9 mph - N/A   Scattered Clouds
4:54 PM 81.7 °F 82.2 °F 60.4 °F 48% 29.78 in 10.0 mi North 5.8 mph - N/A   Scattered Clouds
5:54 PM 81.9 °F 82.1 °F 59.4 °F 46% 29.79 in 10.0 mi NNW 5.8 mph - N/A   Scattered Clouds
6:54 PM 78.8 °F - 59.7 °F 52% 29.80 in 10.0 mi NNW 5.8 mph - N/A   Partly Cloudy
7:54 PM 77.4 °F - 61.2 °F 57% 29.81 in 10.0 mi Variable 3.5 mph - N/A   Partly Cloudy
8:54 PM 75.7 °F - 65.7 °F 71% 29.82 in 10.0 mi North 3.5 mph - N/A   Partly Cloudy
9:54 PM 74.7 °F - 66.7 °F 76% 29.83 in 10.0 mi North 3.5 mph - N/A   Partly Cloudy
10:54 PM 73.9 °F - 67.5 °F 80% 29.84 in 10.0 mi NNE 3.5 mph - N/A   Clear
11:54 PM 73.6 °F - 67.5 °F 81% 29.84 in 10.0 mi Calm Calm - N/A   Clear